Location: Mahannah Oil Field
(37.4664°N, 96.6003°W)
Time: 15:17:24
(UTC+00:00)

Vanguard 2 Rocket - Pass Details

Date: 22 January 2021
Orbit: 554 x 3325 km, 32.9° (Epoch: 06 March)

Event Time Altitude Azimuth Distance (km) Brightness Sun altitude
Rises 03:13:18 0° 273° (W) 3,716 10.9 -42.3°
Reaches altitude 10° 03:16:48 10° 260° (W) 2,401 9.6 -43.0°
Enters shadow 03:17:29 13° 256° (WSW) 2,163 9.3 -43.1°
Maximum altitude 03:20:58 24° 208° (SSW) 1,358 - -43.8°
Drops below altitude 10° 03:24:18 10° 153° (SSE) 1,873 - -44.5°
Sets 03:26:40 0° 137° (SE) 2,712 - -44.9°
